Weather History for K6R6 - May, 2014

Change the Weather History Date:

Wednesday, May 21, 2014

  Actual Average (KFST) Record (KFST)
Temperature  
Mean Temperature 84 °F -  
Max Temperature 96 °F 89 °F 104 °F (1998)
Min Temperature 73 °F 62 °F 52 °F (2003)
Cooling Degree Days 19    
Growing Degree Days 34 (Base 50)    
Moisture  
Dew Point 59 °F    
Average Humidity 44    
Maximum Humidity 71    
Minimum Humidity 28    
Precipitation  
Precipitation 0.00 in - - ()
Sea Level Pressure  
Sea Level Pressure 29.82 in    
Wind  
Wind Speed 16 mph (ESE)    
Max Wind Speed 24 mph    
Max Gust Speed 33 mph    
Averages and records for this station are not official NWS values.
T = Trace of Precipitation, MM = Missing Value Source: NWS Daily Summary

Daily Weather History Graph

Daily Weather History Graph

Search for Another Location

Airport or City:

Trip Planner

Search our weather history database for the weather conditions in past years. The results will help you decide how hot, cold, wet, or windy it might be!

Date:

Astronomy

May. 21, 2014 Rise Set
Actual Time 6:52 AM CDT 8:39 PM CDT
Civil Twilight 6:25 AM CDT 9:05 PM CDT
Nautical Twilight 5:53 AM CDT 9:37 PM CDT
Astronomical Twilight 5:19 AM CDT 10:11 PM CDT
Moon 2:03 AM CDT (5/21) 1:53 PM CDT (5/21)
Length of Visible Light 14h 40m
Length of Day
13h 47m
Waning Gibbous, 48% of the Moon is Illuminated
May 21
Waning Gibbous
May 28
New
Jun 5
First Quarter
Jun 12
Full
Jun 19
Last Quarter

Hourly Weather History & Observations

Time (CDT) Temp. Heat Index Dew Point Humidity Pressure Visibility Wind Dir Wind Speed Gust Speed Precip Events Conditions
12:53 AM 82.0 °F 81.7 °F 57.0 °F 42% 29.83 in - ESE 17.3 mph 24.2 mph N/A   Unknown
1:53 AM 81.0 °F 81.1 °F 57.9 °F 45% 29.81 in - ESE 16.1 mph 28.8 mph N/A   Unknown
2:53 AM 78.1 °F - 57.9 °F 50% 29.81 in - ESE 15.0 mph 27.6 mph N/A   Unknown
3:53 AM 75.9 °F - 57.9 °F 54% 29.82 in - ESE 15.0 mph 23.0 mph N/A   Unknown
4:53 AM 75.0 °F - 59.0 °F 57% 29.82 in - ESE 13.8 mph 25.3 mph N/A   Unknown
5:53 AM 73.0 °F - 61.0 °F 66% 29.83 in - ESE 11.5 mph 23.0 mph N/A   Unknown
6:53 AM 73.0 °F - 63.0 °F 71% 29.85 in - ESE 11.5 mph - N/A   Unknown
7:53 AM 73.9 °F - 64.0 °F 71% 29.87 in - ESE 10.4 mph 18.4 mph N/A   Unknown
8:53 AM 78.1 °F - 64.0 °F 62% 29.88 in - ESE 16.1 mph 25.3 mph N/A   Unknown
9:53 AM 81.0 °F 82.5 °F 64.0 °F 56% 29.87 in - ESE 13.8 mph - N/A   Unknown
10:53 AM 84.9 °F 85.9 °F 63.0 °F 48% 29.87 in - SE 10.4 mph - N/A   Unknown
11:53 AM 87.1 °F 87.5 °F 62.1 °F 43% 29.86 in - ESE 11.5 mph 17.3 mph N/A   Unknown
1:53 PM 93.0 °F 92.7 °F 60.1 °F 33% 29.84 in - SE 12.7 mph 24.2 mph N/A   Unknown
2:53 PM 93.9 °F 92.9 °F 57.9 °F 30% 29.83 in - ESE 17.3 mph 24.2 mph N/A   Unknown
3:53 PM 95.0 °F 93.7 °F 57.0 °F 28% 29.78 in - East 18.4 mph - N/A   Unknown
4:53 PM 95.0 °F 94.0 °F 57.9 °F 29% 29.77 in - ESE 21.9 mph 32.2 mph N/A   Unknown
5:53 PM 95.0 °F 93.7 °F 57.0 °F 28% 29.76 in - ESE 20.7 mph 28.8 mph N/A   Unknown
6:53 PM 93.0 °F 91.7 °F 57.0 °F 30% 29.76 in - ESE 24.2 mph 31.1 mph N/A   Unknown
7:53 PM 90.0 °F 88.1 °F 55.9 °F 31% 29.77 in - ESE 24.2 mph 33.4 mph N/A   Unknown
8:53 PM 89.1 °F 87.3 °F 55.9 °F 32% 29.78 in - ESE 23.0 mph 31.1 mph N/A   Unknown
9:53 PM 88.0 °F 86.5 °F 55.9 °F 34% 29.79 in - ESE 21.9 mph 28.8 mph N/A   Unknown
10:53 PM 87.1 °F 85.9 °F 57.0 °F 36% 29.81 in - ESE 17.3 mph 26.5 mph N/A   Unknown
11:53 PM 84.9 °F 84.4 °F 59.0 °F 41% 29.84 in - ESE 19.6 mph 25.3 mph N/A   Unknown